Location: Arbon
(43.0005°N, 0.7472°E)
Time: 09:47:33
(UTC+00:00)

SR - Pass Details

Date: 27 November 2020
Orbit: 575 x 880 km, 66.7° (Epoch: 27 January)

Event Time Altitude Azimuth Distance (km) Brightness Sun altitude
Rises 01:33:24 0° 341° (NNW) 3,127 - -58.5°
Reaches altitude 10° 01:36:59 10° 7° (N) 2,277 - -58.0°
Maximum altitude 01:39:34 14° 37° (NE) 2,082 - -57.6°
Drops below altitude 10° 01:42:14 10° 67° (ENE) 2,371 - -57.2°
Sets 01:46:06 0° 92° (E) 3,364 - -56.6°
